Falls City, NE

11:03 AM CST on January 18, 2018 (GMT -0600)
Brenner

Weather History for KFNB - May, 2014

Change the Weather History Date:

Sunday, May 18, 2014

  Actual Average Record
Temperature  
Mean Temperature 57 °F -  
Max Temperature 73 °F 77 °F 92 °F (1967)
Min Temperature 41 °F 53 °F 39 °F (2002)
Degree Days  
Heating Degree Days 8    
Growing Degree Days 7 (Base 50)    
Moisture  
Dew Point 41 °F    
Average Humidity 52    
Maximum Humidity 82    
Minimum Humidity 32    
Precipitation  
Precipitation 0.00 in - - ()
Sea Level Pressure  
Sea Level Pressure 30.07 in    
Wind  
Wind Speed 8 mph (SSE)    
Max Wind Speed 21 mph    
Max Gust Speed 29 mph    
Visibility 10 miles    
Events      
Averages and records for this station are not official NWS values.
T = Trace of Precipitation, MM = Missing Value Source: NWS Daily Summary

Daily Weather History Graph

Daily Weather History Graph

Search for Another Location

Airport or City:

Trip Planner

Search our weather history database for the weather conditions in past years. The results will help you decide how hot, cold, wet, or windy it might be!

Date:

Astronomy

May. 18, 2014 Rise Set
Actual Time 6:04 AM CDT 8:33 PM CDT
Civil Twilight 5:33 AM CDT 9:04 PM CDT
Nautical Twilight 4:54 AM CDT 9:43 PM CDT
Astronomical Twilight 4:12 AM CDT 10:26 PM CDT
Moon No Moon Rise 9:54 AM CDT
Length of Visible Light 15h 31m
Length of Day
14h 29m
Waning Gibbous, 81% of the Moon is Illuminated
May 18
Waning Gibbous
May 21
Last Quarter
May 28
New
Jun 5
First Quarter
Jun 12
Full

Hourly Weather History & Observations

Time (CDT) Temp. Windchill Dew Point Humidity Pressure Visibility Wind Dir Wind Speed Gust Speed Precip Events Conditions
12:53 AM 48.9 °F - 36.0 °F 61% 30.16 in 10.0 mi SSW 5.8 mph - N/A   Clear
1:53 AM 45.0 °F - 36.0 °F 71% 30.15 in 10.0 mi Calm Calm - N/A   Clear
2:53 AM 44.1 °F - 36.0 °F 73% 30.16 in 10.0 mi Calm Calm - N/A   Clear
3:53 AM 43.0 °F 41.3 °F 36.0 °F 76% 30.16 in 10.0 mi SE 3.5 mph - N/A   Clear
4:53 AM 43.0 °F 41.3 °F 36.0 °F 76% 30.17 in 10.0 mi SE 3.5 mph - N/A   Clear
5:53 AM 41.0 °F 39.0 °F 35.1 °F 79% 30.17 in 10.0 mi ESE 3.5 mph - N/A   Clear
6:53 AM 41.0 °F 38.0 °F 36.0 °F 82% 30.17 in 10.0 mi SE 4.6 mph - N/A   Clear
7:53 AM 50.0 °F - 41.0 °F 71% 30.17 in 10.0 mi SSE 5.8 mph - N/A   Clear
8:53 AM 57.9 °F - 39.0 °F 49% 30.17 in 10.0 mi South 8.1 mph - N/A   Clear
9:53 AM 63.0 °F - 37.0 °F 38% 30.15 in 10.0 mi SSE 16.1 mph 23.0 mph N/A   Clear
10:53 AM 66.9 °F - 37.9 °F 34% 30.14 in 10.0 mi SSE 11.5 mph - N/A   Clear
11:53 AM 69.1 °F - 37.9 °F 32% 30.12 in 10.0 mi South 15.0 mph 23.0 mph N/A   Clear
12:53 PM 71.1 °F - 39.9 °F 32% 30.09 in 10.0 mi SSE 16.1 mph 24.2 mph N/A   Clear
1:53 PM 72.0 °F - 43.0 °F 35% 30.07 in 10.0 mi SSE 13.8 mph 24.2 mph N/A   Clear
2:53 PM 72.0 °F - 45.0 °F 38% 30.05 in 10.0 mi South 17.3 mph 26.5 mph N/A   Partly Cloudy
3:53 PM 73.0 °F - 45.0 °F 37% 30.01 in 10.0 mi SSE 18.4 mph 25.3 mph N/A   Mostly Cloudy
4:53 PM 72.0 °F - 46.0 °F 40% 29.98 in 10.0 mi SE 20.7 mph 28.8 mph N/A   Scattered Clouds
5:53 PM 73.0 °F - 46.9 °F 39% 29.96 in 10.0 mi SSE 16.1 mph 27.6 mph N/A   Clear
6:53 PM 71.1 °F - 46.0 °F 41% 29.95 in 10.0 mi SSE 20.7 mph 27.6 mph N/A   Clear
7:53 PM 69.1 °F - 46.0 °F 44% 29.93 in 10.0 mi SE 19.6 mph 26.5 mph N/A   Clear
8:53 PM 66.9 °F - 45.0 °F 45% 29.91 in 10.0 mi SE 13.8 mph 25.3 mph N/A   Clear
9:53 PM 64.9 °F - 46.0 °F 50% 29.91 in 10.0 mi SE 15.0 mph - N/A   Clear
10:53 PM 63.0 °F - 46.9 °F 56% 29.93 in 10.0 mi SE 11.5 mph - N/A   Clear
11:53 PM 63.0 °F - 48.0 °F 58% 29.93 in 10.0 mi SE 10.4 mph - N/A   Mostly Cloudy